Regional Weather Roundup
Issued by NWS

Home | Current Version | Previous Version | Text Only | Print | Product List | Glossary On
Versions: 1 2 3 4 5 6 7 8 9 10 11 12 13 14 15 16 17 18 19 20 21 22 23 24 25 26 27 28 29 30 31 32 33 34 35 36 37 38 39 40 41 42 43 44 45 46 47 48 49 50
000
ASUS43 KBIS 261710
RWRND

NORTH DAKOTA REGIONAL WEATHER ROUNDUP
NATIONAL WEATHER SERVICE BISMARCK ND
1200 PM CDT THU MAY 26 2016

NOTE: "FAIR" INDICATES FEW OR NO CLOUDS BELOW 12,000 FEET WITH NO
SIGNIFICANT WEATHER AND/OR OBSTRUCTIONS TO VISIBILITY.


NDZ001>003-009>011-017-261800-
NORTHWEST NORTH DAKOTA

CITY           SKY/WX    TMP DP  RH WIND       PRES   REMARKS
WILLISTON      CLOUDY    55  48  77 VRB5      29.82S
MINOT          LGT RAIN  59  55  87 NE7       29.80R FOG
MINOT AFB      CLOUDY    59  55  88 E7        29.79S
$$

NDZ018>021-031>035-040>046-261800-
SOUTHWEST NORTH DAKOTA

CITY           SKY/WX    TMP DP  RH WIND       PRES   REMARKS
BISMARCK       SUNNY     69  48  47 W7        29.81F
DICKINSON      MOSUNNY   62  43  49 SW6       29.81F
GARRISON         N/A     62  51  67 W13       29.81S
HETTINGER ARPT MOSUNNY   64  43  46 W15G25    29.86S
$$

NDZ004>008-012>016-024-026-027-054-261800-
NORTHEAST NORTH DAKOTA

CITY           SKY/WX    TMP DP  RH WIND       PRES   REMARKS
GRAND FORKS    CLOUDY    66  56  70 W13       29.73R
GRND FRKS AFB  CLOUDY    66  55  68 W12       29.74R
DEVILS LAKE    PTSUNNY   60  54  80 W7        29.77S
$$

NDZ022-023-025-028>030-036>039-047>053-261800-
SOUTHEAST NORTH DAKOTA

CITY           SKY/WX    TMP DP  RH WIND       PRES   REMARKS
FARGO          PTSUNNY   66  58  75 SW16      29.78R
JAMESTOWN      MOSUNNY   65  55  70 W14       29.79S
$$





USA.gov is the U.S. government's official web portal to all federal, state and local government web resources and services.